Regional Weather Roundup
Issued by NWS

Home | Current Version | Previous Version | Text Only | Print | Product List | Glossary Off
Versions: 1 2 3 4 5 6 7 8 9 10 11 12 13 14 15 16 17 18 19 20 21 22 23 24 25 26 27 28 29 30 31 32 33 34 35 36 37 38 39 40 41 42 43 44 45 46 47 48 49 50

637
ASUS45 KCYS 252110
RWRWY

WYOMING REGIONAL WEATHER ROUNDUP
NATIONAL WEATHER SERVICE CHEYENNE WY
200 PM MST SAT FEB 25 2017

NOTE:  "FAIR" INDICATES FEW OR NO CLOUDS BELOW 12,000 FEET
WITH NO SIGNIFICANT WEATHER AND/OR OBSTRUCTIONS TO VISIBILITY.

WYZ001-252200-
YELLOWSTONE NATIONAL PARK

CITY           SKY/WX    TMP DP  RH WIND       PRES   REMARKS
LK YELLOWSTONE   N/A     12  -1  56 W15G26    29.73F WCI  -4
W YELLOWSTONE  NOT AVBL

$$
WYZ002>013-054>058-071-098>099-252200-
NORTHERN WYOMING

CITY           SKY/WX    TMP DP  RH WIND       PRES   REMARKS
JACKSON        CLOUDY    18  10  73 SW17      29.85S WCI   2
CODY           FAIR      29   5  36 W18G32    29.73F WCI  16
GREYBULL       CLOUDY    31  17  56 S12       29.77F WCI  22
WORLAND        FAIR      28  14  55 S7        29.78F WCI  21
SHERIDAN       FAIR      30  16  56 S10       29.74F WCI  21
BUFFALO        PTSUNNY   25  14  63 SE3       29.71F
GILLETTE       FAIR      29  14  53 SW10      29.72F WCI  20
HULETT         LGT SNOW  28  23  80 SW5       29.75F WCI  23
NEWCASTLE      LGT SNOW  23  19  86 S10       29.80F VSB 1   WCI  12

$$
WYZ014>020-022>026-101>103-252200-
CENTRAL WYOMING

CITY           SKY/WX    TMP DP  RH WIND       PRES   REMARKS
BIG PINEY      LGT SNOW  10   1  67 E5        29.84F WCI   2
PINEDALE       FAIR      16   1  53 CALM      29.85F
DUBOIS         MOCLDY    14   1  57 NW28G43   29.69F HAZE    WCI  -6
LANDER         FAIR      17   2  51 SE5       29.77F WCI  10
RIVERTON       FAIR      19   4  51 S9        29.78F WCI   8
CASPER         FAIR      19   8  62 SW25G36   29.77F WCI   1
DOUGLAS        FAIR      22  12  65 W12G23    29.78F WCI  10

$$
WYZ021-027>030-104>119-252200-
SOUTHERN WYOMING

CITY           SKY/WX    TMP DP  RH WIND       PRES   REMARKS
EVANSTON       FAIR      19   8  62 SW21      29.89F WCI   3
FORT BRIDGER   FAIR      20  13  74 W24G31    29.91F WCI   3
ROCK SPRINGS   FAIR      17   7  64 W20       29.87F WCI   1
DIXON            N/A     23   5  46 W14       29.93F WCI  11
RAWLINS        FAIR      17   6  62 W29G43    29.80F HAZE    WCI  -2
SARATOGA       FAIR      19   9  63 W22G36    29.83F WCI   3
LARAMIE        FAIR      19   3  49 W25G33    29.74F WCI   1
CHEYENNE       FAIR      25   6  44 W18G33    29.78F WCI  11
TORRINGTON     FAIR      27  10  49 W14G22    29.83F WCI  16
PINE BLUFFS    FAIR      28  10  47 W10G16    29.83F WCI  19

$$




USA.gov is the U.S. government's official web portal to all federal, state and local government web resources and services.